RH
22 22 21 20 20 19 19 18 18 19 20 20 20 20 20 21 27 34 35 33 32 28 27 31 36 39 41 41 42 44 43 42 42 43 43 42 40 40 39 39 38 40
23 23 22 21 20 20 20 19 19 19 19 19 20 20 20 20 24 31 34 33 31 28 27 30 34 38 39 39 40 42 42 42 42 43 44 43 41 40 40 40 39 39
24 25 24 23 21 21 21 21 21 20 19 19 19 19 19 19 22 28 33 32 30 29 28 30 33 37 38 38 39 41 41 41 42 43 44 43 40 38 37 38 39 38
26 26 26 26 24 23 22 22 22 21 21 20 20 20 20 20 21 26 31 30 28 28 30 31 33 35 37 37 39 41 41 41 42 43 45 44 40 37 37 38 38 37
27 26 27 27 28 27 26 24 23 22 22 22 21 21 21 22 23 26 29 29 27 28 31 33 33 34 36 37 39 42 41 41 42 43 45 44 41 38 37 37 38 38
26 26 27 28 29 29 29 28 26 24 23 23 23 23 22 24 25 26 28 28 27 28 32 35 34 34 36 37 39 41 41 41 42 43 45 45 43 41 39 38 38 38
27 26 26 27 27 29 30 31 30 28 26 25 26 26 25 25 26 27 29 28 27 28 33 37 36 34 36 37 39 40 40 41 42 43 45 45 45 44 41 40 39 40
31 30 29 29 29 30 31 32 33 32 31 29 29 28 28 28 27 27 29 29 27 27 32 37 36 35 37 39 40 41 41 41 42 43 44 43 44 45 44 43 43 43
36 35 34 33 32 31 32 33 33 33 32 32 31 30 30 30 29 29 31 30 28 27 30 36 36 35 37 39 40 41 42 41 42 42 43 43 43 44 43 44 45 46
37 37 35 33 32 31 31 32 32 31 30 31 31 31 31 31 31 32 33 32 30 28 29 34 36 36 37 38 39 41 42 43 43 43 43 43 42 42 42 42 44 46
37 37 34 32 31 30 30 31 32 30 28 28 29 30 30 31 31 32 33 33 32 29 29 34 36 36 37 38 39 39 41 42 44 45 44 43 42 41 40 40 43 46
37 36 33 32 31 29 29 30 30 29 27 26 26 26 27 27 27 28 30 32 31 30 29 32 35 36 36 37 38 39 40 42 44 45 45 44 43 41 38 38 41 44
37 36 34 32 32 31 30 29 29 28 28 28 28 27 27 27 26 27 28 29 29 28 28 30 33 34 36 37 38 38 38 40 43 45 45 44 43 41 38 38 40 43
37 37 35 35 34 33 32 31 30 29 28 28 28 28 28 27 27 27 27 28 28 27 27 29 30 32 35 36 36 37 37 38 41 44 45 44 43 40 38 38 40 44
38 38 37 36 35 34 34 33 33 32 31 29 28 27 27 27 27 28 28 28 28 27 26 27 27 30 33 35 36 37 37 37 39 42 43 43 42 40 39 41 43 48
39 40 38 37 36 36 35 35 34 34 33 32 31 30 29 28 26 26 27 29 30 29 27 26 25 27 31 34 35 36 36 36 37 39 42 42 42 42 42 44 48 52
41 41 40 39 37 37 37 37 36 35 34 34 33 33 32 30 28 26 26 27 30 30 29 27 25 25 29 32 33 35 36 36 36 38 40 41 42 42 43 47 52 54
41 42 42 40 39 38 38 39 39 38 36 35 34 34 34 32 31 30 28 28 28 29 29 28 26 25 27 30 32 34 35 36 35 37 39 41 42 42 44 50 53 53
42 42 42 41 40 39 39 40 40 39 37 36 36 36 35 34 33 32 31 30 29 27 27 27 26 26 27 28 30 32 34 35 35 36 38 41 41 41 45 50 52 53
43 43 43 42 42 42 42 41 40 39 39 39 39 38 37 36 35 35 34 32 31 29 27 26 26 27 28 29 30 32 33 34 35 35 37 40 40 41 44 49 52 53
44 44 44 44 44 44 44 43 42 41 40 40 41 40 39 38 37 37 36 34 33 32 30 26 25 26 28 29 30 31 33 34 34 34 36 38 40 41 44 49 52 54
46 47 47 46 46 46 45 45 44 42 41 41 42 42 41 39 38 38 38 37 36 34 32 29 27 26 28 30 32 33 34 34 33 33 35 37 39 41 45 48 52 54
48 48 48 48 48 46 45 45 45 44 43 43 43 42 41 41 40 40 39 39 38 37 35 33 31 30 29 30 34 36 35 35 34 33 34 37 40 42 45 48 52 54
46 46 46 46 45 44 43 43 44 44 44 44 43 42 42 42 42 42 42 41 40 39 37 35 34 33 30 29 32 35 36 36 35 35 36 38 41 44 46 49 52 55
44 45 43 41 41 41 41 42 42 43 44 44 44 44 43 43 43 44 43 42 41 41 41 39 37 35 32 29 30 32 35 36 38 38 38 40 43 46 48 50 52 55
44 44 42 41 41 41 41 42 43 43 45 45 46 46 45 46 46 45 44 44 43 43 42 42 41 38 35 32 31 31 32 35 38 38 38 41 46 48 48 50 53 56